Regional Weather Roundup
Issued by NWS

Home | Current Version | Previous Version | Graphics & Text | Print | Product List | Glossary On
Versions: 1 2 3 4 5 6 7 8 9 10 11 12 13 14 15 16 17 18 19 20 21 22 23 24 25 26 27 28 29 30 31 32 33 34 35 36 37 38 39 40 41 42 43 44 45 46 47 48 49 50
000
ASUS45 KSLC 212110
RWRUT

UTAH REGIONAL WEATHER ROUNDUP
NATIONAL WEATHER SERVICE SALT LAKE CITY UT
200 PM MST SUN DEC 21 2014

UTZ001>011-023>025-212200-

NORTHERN UTAH

CITY           SKY/WX    TMP DP  RH WIND       PRES   REMARKS
BRIGHAM CITY   CLOUDY    45  39  80 SW14G21   29.89S
HILL AFB       CLOUDY    42  42  99 S10       29.92F
LOGAN          CLOUDY    47  40  76 W18       29.86S
OGDEN          CLOUDY    43  40  89 S14       29.91F
PROVO AIRPORT  NOT AVBL
SALT LAKE CITY CLOUDY    43  39  86 S15       29.92F
VERNAL         CLOUDY    34  28  79 CALM      29.85F
WENDOVER       CLOUDY    55  37  50 NW18      29.93F
HEBER CITY     MIX PCPN  36  34  93 E6        29.92S WCI  31
WEST JORDAN    CLOUDY    39  39 100 SE17G24   29.93F WCI  30

$$

UTZ012>022-026-027-212200-

SOUTHERN/CENTRAL UTAH

CITY           SKY/WX    TMP DP  RH WIND       PRES   REMARKS
BLANDING       MOSUNNY   38  32  79 S3        30.05F
BRYCE CANYON   MOSUNNY   49  31  49 NW18G29   30.04F
CEDAR CITY     MOSUNNY   54  34  46 CALM      30.06R
DELTA          CLOUDY    47  34  61 S3        29.98F
MILFORD        PTSUNNY   53  36  52 S20       30.02S
MOAB/CYNLANDS  CLOUDY    41  34  76 NW9       29.95F
PRICE          LGT SNOW  33  29  85 SW3       29.96F FOG
ST GEORGE      CLOUDY    50  34  53 CALM      30.09F
KANAB          SUNNY     46  34  61 S7        30.10F

$$

REGIONAL REPORTS     COLORADO/ARIZONA

CITY           SKY/WX    TMP DP  RH WIND       PRES   REMARKS
CRAIG, CO      CLOUDY    38  31  76 SW23G30   29.73F WCI  27
GRAND JUNCTION CLOUDY    33  32  96 CALM      29.95F
RIFLE          LGT SNOW  34  29  82 SW7       29.88F WCI  28
MONTROSE       CLOUDY    34  30  85 NE5       29.94F WCI  30
CORTEZ         PTSUNNY   43  29  57 N9        29.99F
PAGE, AZ       MOSUNNY   45  30  55 NE7       30.01F
GRAND CANYON   PTSUNNY   47  33  58 NW10G21   30.10F
KINGMAN        CLOUDY    53  37  54 NE5       30.11F
FLAGSTAFF      SUNNY     52  31  44 W15       30.09F

$$

REGIONAL REPORTS    NEVADA/IDAHO/WYOMING

CITY           SKY/WX    TMP DP  RH WIND       PRES   REMARKS
LAS VEGAS, NV  PTSUNNY   55  38  52 S3        30.06F
ELY            CLOUDY    48  38  68 SE6       30.10F
ELKO           CLOUDY    50  41  71 W15       30.04F
POCATELLO, ID  PTSUNNY   47  43  86 W31G44    29.78F
BURLEY         LGT RAIN  48  43  82 W24G40    29.86R
EVANSTON, WY   LGT SNOW  35  33  92 SW22G30   29.82F FOG     WCI  23
ROCK SPRINGS   CLOUDY    38  31  76 W37G51    29.67F WCI  25
KEMMERER       LGT SNOW  34  32  93 SW38G45   29.71F WCI  19

$$


USA.gov is the U.S. government's official web portal to all federal, state and local government web resources and services.